FW4667 Weather Reports


time (UTC)temp
C
wind
direction
speed
KPH
gust
KPH
rain 1hr
cm
rain 24hr
cm
rain mn
cm
humidity
%
barometer
mb
20260503224903 23 284 12.9 22.5 0.00 0.00 0.00 39 1014.8
20260503224402 23 283 14.5 22.5 0.00 0.00 0.00 41 1015.0
20260503223903 23 289 14.5 22.5 0.00 0.00 0.00 40 1015.1
20260503223405 23 293 14.5 22.5 0.00 0.00 0.00 39 1015.1
20260503222902 23 291 12.9 22.5 0.00 0.00 0.00 39 1015.2
20260503222403 23 9 9.7 24.1 0.00 0.00 0.00 38 1015.3
20260503221903 23 283 9.7 24.1 0.00 0.00 0.00 40 1015.4
20260503220858 23 287 8.0 14.5 0.00 0.00 0.00 44 1015.6
20260503220359 23 293 11.3 19.3 0.00 0.00 0.00 45 1015.7
20260503215859 22 284 12.9 19.3 0.00 0.00 0.00 47 1015.7
20260503215358 22 282 11.3 19.3 0.00 0.00 0.00 47 1015.7
20260503214858 22 304 9.7 19.3 0.00 0.00 0.00 46 1015.8
20260503214359 22 263 8.0 17.7 0.00 0.00 0.00 47 1015.8
20260503213858 22 298 9.7 17.7 0.00 0.00 0.00 50 1016.0
20260503213358 22 319 11.3 20.9 0.00 0.00 0.00 53 1016.0
20260503212854 21 290 11.3 20.9 0.00 0.00 0.00 52 1016.1
20260503212355 21 291 11.3 20.9 0.00 0.00 0.00 52 1016.0
20260503211854 21 306 11.3 16.1 0.00 0.00 0.00 54 1016.1
20260503211354 21 312 12.9 20.9 0.00 0.00 0.00 56 1016.2
20260503210855 21 340 12.9 24.1 0.00 0.00 0.00 55 1016.1
20260503210354 21 314 14.5 25.7 0.00 0.00 0.00 55 1016.2
20260503205855 21 296 16.1 25.7 0.00 0.00 0.00 55 1016.3
20260503204855 21 281 17.7 27.4 0.00 0.00 0.00 55 1016.3
20260503203851 21 316 14.5 27.4 0.00 0.00 0.00 54 1016.4
20260503203350 21 307 14.5 27.4 0.00 0.00 0.00 53 1016.5
20260503202850 21 281 16.1 25.7 0.00 0.00 0.00 53 1016.3
20260503202350 21 314 16.1 25.7 0.00 0.00 0.00 53 1016.4
20260503201852 21 301 14.5 25.7 0.00 0.00 0.00 52 1016.5
20260503201350 21 304 14.5 24.1 0.00 0.00 0.00 53 1016.6
20260503200350 20 2 14.5 22.5 0.00 0.00 0.00 53 1016.7
20260503195850 20 340 12.9 19.3 0.00 0.00 0.00 57 1016.8
20260503194850 20 294 12.9 19.3 0.00 0.00 0.00 57 1016.8
20260503194350 20 321 14.5 19.3 0.00 0.00 0.00 60 1017.0
20260503192350 20 309 11.3 19.3 0.00 0.00 0.00 58 1017.3
20260503191850 20 317 11.3 17.7 0.00 0.00 0.00 58 1017.3
20260503191351 20 325 12.9 20.9 0.00 0.00 0.00 60 1017.3
20260503190851 19 303 12.9 20.9 0.00 0.00 0.00 58 1017.2
20260503190350 20 302 12.9 19.3 0.00 0.00 0.00 59 1017.3
20260503185348 19 314 12.9 22.5 0.00 0.00 0.00 60 1017.4
20260503184849 19 283 12.9 20.9 0.00 0.00 0.00 59 1017.4
20260503184350 19 273 14.5 22.5 0.00 0.00 0.00 61 1017.3
20260503183847 19 281 14.5 25.7 0.00 0.00 0.00 62 1017.4
20260503183347 18 304 14.5 25.7 0.00 0.00 0.00 62 1017.5
20260503182347 19 327 9.7 17.7 0.00 0.00 0.00 61 1017.7
20260503181846 19 278 9.7 20.9 0.00 0.00 0.00 62 1017.8
20260503181347 18 293 12.9 20.9 0.00 0.00 0.00 62 1017.7
20260503180839 18 285 11.3 20.9 0.00 0.00 0.00 62 1018.0
20260503180331 18 307 9.7 20.9 0.00 0.00 0.00 62 1017.9
20260503175830 18 359 9.7 20.9 0.00 0.00 0.00 65 1018.0
20260503175333 18 279 11.3 19.3 0.00 0.00 0.00 64 1017.9
20260503174827 18 294 12.9 20.9 0.00 0.00 0.00 65 1018.0
20260503173829 18 296 14.5 25.7 0.00 0.00 0.00 67 1018.1
20260503172828 17 311 12.9 22.5 0.00 0.00 0.00 67 1018.1
20260503172329 17 293 12.9 22.5 0.00 0.00 0.00 67 1018.0
20260503171826 17 305 12.9 22.5 0.00 0.00 0.00 66 1018.1
20260503171326 18 299 9.7 20.9 0.00 0.00 0.00 66 1018.2
20260503170826 18 280 9.7 19.3 0.00 0.00 0.00 65 1018.2
20260503170326 18 287 11.3 19.3 0.00 0.00 0.00 66 1018.1
20260503150731 16 293 11.3 20.9 0.00 0.00 0.00 69 1018.4
20260503150226 16 288 11.3 20.9 0.00 0.00 0.00 69 1018.4
20260503090339 13 261 0.0 3.2 0.00 0.00 0.00 80 1018.0
20260503081331 12 292 6.4 11.3 0.00 0.00 0.00 81 1018.1
20260503080831 12 316 6.4 14.5 0.00 0.00 0.00 82 1018.1
20260503080331 12 298 6.4 14.5 0.00 0.00 0.00 83 1017.9
20260503072834 13 23 3.2 6.4 0.00 0.00 0.00 78 1017.8
20260503072331 13 323 1.6 6.4 0.00 0.00 0.00 79 1017.8
20260503071832 13 15 0.0 3.2 0.00 0.00 0.00 79 1017.8
20260503071331 13 15 1.6 8.0 0.00 0.00 0.00 79 1017.8
20260503070832 13 16 1.6 8.0 0.00 0.00 0.00 79 1017.9
20260503070332 13 133 0.0 3.2 0.00 0.00 0.00 78 1017.8
20260503060321 13 319 1.6 6.4 0.00 0.00 0.00 77 1017.6
20260503054819 14 10 4.8 8.0 0.00 0.00 0.00 73 1017.6
20260503054317 15 4 6.4 9.7 0.00 0.00 0.00 73 1017.5
20260503053814 15 358 8.0 11.3 0.00 0.00 0.00 73 1017.6
20260503053316 14 311 9.7 12.9 0.00 0.00 0.00 75 1017.6
20260503052315 13 323 9.7 11.3 0.00 0.00 0.00 77 1017.6
20260503051814 13 328 9.7 12.9 0.00 0.00 0.00 78 1017.6
20260503051315 13 317 9.7 12.9 0.00 0.00 0.00 79 1017.6
20260503050815 13 323 8.0 11.3 0.00 0.00 0.00 78 1017.6
20260503050316 13 333 8.0 9.7 0.00 0.00 0.00 77 1017.5
20260503045314 15 338 6.4 9.7 0.00 0.00 0.00 70 1017.5
20260503044814 16 353 4.8 9.7 0.00 0.00 0.00 65 1017.4
20260503044314 17 6 3.2 8.0 0.00 0.00 0.00 62 1017.4
20260503043312 18 273 4.8 11.3 0.00 0.00 0.00 59 1017.2
20260503042812 16 281 4.8 9.7 0.00 0.00 0.00 66 1017.3
20260503041810 13 323 6.4 11.3 0.00 0.00 0.00 76 1017.3
20260503040308 16 338 6.4 12.9 0.00 0.00 0.00 69 1017.2
20260503035807 18 314 4.8 12.9 0.00 0.00 0.00 60 1017.3
20260503035307 18 335 4.8 9.7 0.00 0.00 0.00 56 1017.1
20260503034808 20 277 6.4 11.3 0.00 0.00 0.00 52 1017.0
20260503034304 20 286 6.4 11.3 0.00 0.00 0.00 52 1016.8
20260503033806 20 275 6.4 11.3 0.00 0.00 0.00 52 1016.8
20260503033305 20 252 4.8 11.3 0.00 0.00 0.00 53 1016.8
20260503031805 19 283 4.8 12.9 0.00 0.00 0.00 57 1016.7
20260503031303 18 290 3.2 11.3 0.00 0.00 0.00 63 1016.7
20260503030808 17 345 4.8 9.7 0.00 0.00 0.00 67 1016.7
20260503030259 16 323 4.8 9.7 0.00 0.00 0.00 67 1016.7
20260503025756 17 306 4.8 8.0 0.00 0.00 0.00 64 1016.8
20260503025257 17 347 3.2 8.0 0.00 0.00 0.00 63 1016.8
20260503024756 18 345 1.6 4.8 0.00 0.00 0.00 58 1016.8
20260503023253 22 271 4.8 9.7 0.00 0.00 0.00 48 1016.6
20260503022746 22 274 4.8 9.7 0.00 0.00 0.00 47 1016.8
20260503022240 22 292 4.8 12.9 0.00 0.00 0.00 48 1016.8
20260503021734 22 277 6.4 14.5 0.00 0.00 0.00 48 1016.9
20260503021228 22 278 8.0 14.5 0.00 0.00 0.00 48 1016.7
20260503020722 22 269 6.4 14.5 0.00 0.00 0.00 47 1016.8
20260503020221 22 293 4.8 14.5 0.00 0.00 0.00 47 1016.8
20260503015720 22 262 8.0 14.5 0.00 0.00 0.00 48 1017.0
20260503015220 22 283 9.7 19.3 0.00 0.00 0.00 48 1016.9
20260503014720 22 281 9.7 19.3 0.00 0.00 0.00 48 1016.9
20260503014221 22 285 8.0 17.7 0.00 0.00 0.00 48 1017.0
20260503013720 22 277 9.7 17.7 0.00 0.00 0.00 48 1016.9
20260503013220 22 276 9.7 19.3 0.00 0.00 0.00 48 1017.0
20260503012721 22 290 8.0 19.3 0.00 0.00 0.00 49 1017.0
20260503012221 22 276 8.0 17.7 0.00 0.00 0.00 49 1017.1
20260503011720 22 307 9.7 22.5 0.00 0.00 0.00 49 1017.1
20260503011221 22 260 11.3 22.5 0.00 0.00 0.00 50 1017.2
20260503010720 22 287 9.7 16.1 0.00 0.00 0.00 50 1017.2
20260503005720 22 278 8.0 16.1 0.00 0.00 0.00 49 1017.2
20260503005220 22 248 8.0 19.3 0.00 0.00 0.00 50 1017.3
20260503004721 22 288 11.3 22.5 0.00 0.00 0.00 50 1017.4
20260503004221 22 288 11.3 22.5 0.00 0.00 0.00 50 1017.3
20260503003219 22 300 9.7 19.3 0.00 0.00 0.00 50 1017.4
20260503002718 22 293 9.7 19.3 0.00 0.00 0.00 50 1017.2
20260503002220 22 262 9.7 19.3 0.00 0.00 0.00 50 1017.2
20260503001218 22 295 9.7 17.7 0.00 0.00 0.00 50 1017.3
20260503000719 22 271 11.3 24.1 0.00 0.00 0.00 50 1017.4
20260503000218 21 252 11.3 24.1 0.00 0.00 0.00 51 1017.4
20260502235717 22 302 9.7 22.5 0.00 0.00 0.00 50 1017.4
20260502235216 22 270 9.7 22.5 0.00 0.00 0.00 51 1017.6
20260502234712 22 34 11.3 24.1 0.00 0.00 0.00 52 1017.5
20260502234212 21 282 11.3 24.1 0.00 0.00 0.00 53 1017.6
20260502233713 22 260 9.7 22.5 0.00 0.00 0.00 53 1017.6
20260502233213 21 297 12.9 25.7 0.00 0.00 0.00 54 1017.7
20260502232712 21 282 12.9 25.7 0.00 0.00 0.00 54 1017.7
20260502232214 21 290 11.3 22.5 0.00 0.00 0.00 54 1017.8
20260502231715 21 251 11.3 22.5 0.00 0.00 0.00 55 1018.0
20260502231214 21 281 11.3 19.3 0.00 0.00 0.00 54 1018.0
20260502230714 21 309 12.9 24.1 0.00 0.00 0.00 56 1018.0
20260502230210 21 282 14.5 24.1 0.00 0.00 0.00 54 1018.1
20260502225709 21 292 12.9 22.5 0.00 0.00 0.00 54 1018.2
20260502225211 21 309 11.3 22.5 0.00 0.00 0.00 52 1018.4